Location: Ellingshausen
(50.5460°N, 10.4723°E)
Time: 06:52:25
(UTC+00:00)

Cosmos 841 Rocket - Pass Details

Date: 18 January 2026
Orbit: 743 x 766 km, 74.0° (Epoch: 18 February)

Event Time Altitude Azimuth Distance (km) Brightness Sun altitude
Exits shadow 06:14:07 - 335° (NNW) 3,047 6.2 -8.8°
Reaches altitude 10° 06:16:04 10° 335° (NNW) 2,283 5.5 -8.5°
Maximum altitude 06:21:15 87° 248° (WSW) 756 3.5 -7.8°
Drops below altitude 10° 06:26:22 10° 159° (SSE) 2,255 6.6 -7.0°
Sets 06:28:43 0° 159° (SSE) 3,173 7.5 -6.7°
